Weather in Baskakovo

Russia / Tula Oblast     53°28′20″N   37°55′26″E
temp.,
°C
wind,
m/s
gust,
m/s
humid.,
%
clouds,
%
prec.,
mm/h
press.,
hPa
HPBL,
m
9 may, sun
sun900:00+7wsw3796100 0.0 1004280
03:00+7sw1296100 0.3 100457
06:00+5nw71096100 0.9 1007688
09:00+4nw71196100 1.7 1010869
12:00+4nw81496100 0.2 1013861
15:00+5nw81388100 0.7 10151122
18:00+7nw7137691 0.3 10171298
21:00+5nw4108417 0.3 1019236
10 may, mon
mon1000:00+3nnw410885 0.0 1021240
03:00+3nw514865 0.0 1023302
06:00+3n513820 0.0 1025373
09:00+8n812650 0.0 10251217
12:00+11nne911516 0.0 10251476
15:00+12nne91153100 0.0 10241485
18:00+11nne81361100 0.0 10241183
21:00+9nne7156599 0.0 1024678
11 may, tue
tue1100:00+8nne81773100 0.0 1024522
03:00+7nne8177960 0.0 1023420
06:00+8nne8188595 0.1 1023427
09:00+11ne8168398 0.1 1023552
12:00+16ene8117298 0.0 10231086
15:00+14e61285100 0.3 1024762
18:00+12ese498512 0.1 1025471
21:00+10e359280 0.1 102582
12 may, wed
wed1200:00+9sse3585100 0.0 1026111
03:00+8ne1292100 1.9 102576
06:00+8ene2393100 1.2 1024114
09:00+12e45776 1.2 1024658
12:00+14e6665100 0.0 10231358
15:00+12e6985100 0.1 1022758
18:00+13ese5780100 0.1 1021914
21:00+10e4996100 0.1 1020227
13 may, thu
thu1300:00+9ese41096100 0.1 1020222
03:00+9ese410955 0.1 1020201
06:00+9ese39937 0.0 1021225
09:00+15se57725 0.0 1020554
12:00+18se465928 0.0 10191286
15:00+19se56545 0.0 10191456
18:00+19se366695 0.0 1018716
21:00+15ese3584100 0.0 101866